Location: Melbourne
(37.8666°S, 145.1333°E)
Time: 21:52:49
(UTC+11:00)

Iridium 72 - Visible Passes

Search period start: 30 January 2015 00:00
Search period end: 09 February 2015 00:00
Orbit: 776 x 779 km, 86.4° (Epoch: 29 January)

Date Brightness Start Highest point End Pass type
(mag) Time Alt. Az. Time Alt. Az. Time Alt. Az.
01 Feb 9.1 21:22:33 10° W 21:24:14 11° WSW 21:25:32 10° WSW visible
06 Feb 8.6 05:37:46 10° SE 05:40:31 15° ESE 05:43:32 10° ENE visible
08 Feb 7.2 06:09:45 10° SSE 06:14:40 39° E 06:19:35 10° NNE visible
